CAS-2T & KS-1Q (41847 NORAD) Tracking and Keplerian Element Data

This shows tracking and keplerian element data for the satellite.

Feedback or suggestion? Click here.




ElementValue
Catalog41847
NameCAS-2T & KS-1Q
Epoch Orbit31684
Epoch Day324.89257846
Epoch Year2022
RAAN29.2753
Inclination98.5333
Eccentricity0.0363725
Argument of Perigee101.7554
Mean Anonmoly262.4671
Mean Motion14.38911951
Decay Rate7.25E-06
L11 41847U 16066G 22324.89257846 .00000725 00000+0 11670-3 0 9996
L22 41847 98.5333 29.2753 0363725 101.7554 262.4671 14.38911951316846



Live tracking and technical data element details for CAS-2T & KS-1Q (NORAD 41847). CAS-2T & KS-1Q can be tracked NOW for your location showing map with azimuth and elevation plus other details from your city location.







IsCatalogInMostPopularTable: catalog: 41847, numindb: 433
Update: records affected: 1



GetName: 41847 CAS-2T & KS-1Q

Hit Count: updated at: Mon, 28 Nov 2022 03:54:31 GMT